Retour au catalogue

STARLINK-37069

ActifCommunicationsSSO
NORAD 68158·PAYLOAD·🇺🇸 United States

Lancé Mar 13, 2026 depuis Vandenberg Space Force Base

Loading…

Prochains Passages (prochaines 24 heures)

TLE

FraisSource: CelesTrak SupGP

Époque: Sep 14, 2026, 22:55 UTC

1 68158C 26049S   26257.95534722  .00044785  00000+0  13903-2 0  2570
2 68158  97.2841 277.9401 0001572  86.9674  69.9142 15.33414451    19

Suivez STARLINK-37069 en temps réel avec AllMySat

Download on the App Store